Regional Weather Roundup
Issued by NWS Sterling, VA

Home | Current Version | Previous Version | Graphics & Text | Print | Product List | Glossary On
Versions: 1 2 3 4 5 6 7 8 9 10 11 12 13 14 15 16 17 18 19 20 21 22 23 24 25 26 27
000
ASUS41 KLWX 250011
RWRLWX

REGIONAL WEATHER ROUNDUP
NATIONAL WEATHER SERVICE BALTIMORE MD/WASHINGTON DC
800 PM EDT WED MAY 24 2017

Note: "FAIR" indicates few or no clouds below 12,000 feet
with no significant weather and/or obstructions to visibility.
 TC=TEMPERATURE CELSIUS

 * =Non NWS site. Station does not report precipitation (e.g. rain,
    snow, etc.), thunder, or fog.

DCZ001-MDZ009-015-VAZ040>042-051-053>054-250100-
WASHINGTON METRO

CITY           SKY/WX    TMP DP  RH WIND       PRES   REMARKS
WASHINGTON NAT CLOUDY    65  58  78 SE10      29.72R
DULLES         CLOUDY    62  55  77 E13       29.70S
ANDREWS AFB    CLOUDY    62  56  80 E9        29.71S
FT BELVOIR     CLOUDY    63  57  79 E7        29.71R
QUANTICO       CLOUDY    64  59  83 SE12      29.71S
COLLEGE PARK*  CLOUDY    63  54  72 E7        29.73R
LEESBURG*      CLOUDY    63  61  94 SE8       29.71S
MANASSAS*      CLOUDY    62  57  83 E8        29.70S
GAITHERSBURG*  CLOUDY    62  56  80 E10G17    29.72S

$$

MDZ006>007-011-014-250100-
BALTIMORE METRO

CITY           SKY/WX    TMP DP  RH WIND       PRES   REMARKS
BWI AIRPORT    CLOUDY    63  55  75 SE16      29.74R
MD SCIENCE CTR   N/A     65  55  70 MISG      29.75R
MARTIN STATE   CLOUDY    64  57  77 E12G18    29.75S
ANNAPOLIS      CLOUDY    64  59  83 SE15      29.74S
FORT MEADE*    CLOUDY    61  54  77 SE12      29.77R

$$

MDZ012-015-019>023-250100-
MARYLAND EASTERN SHORE

CITY           SKY/WX    TMP DP  RH WIND       PRES   REMARKS
OCEAN CITY     CLOUDY    57  54  89 E13G20    29.77F
SALISBURY      CLOUDY    58  55  90 E14G21    29.75F
BAY BRIDGE AP* CLOUDY    63  54  72 SE9       29.74S
CAMBRIDGE*     CLOUDY    61  55  82 E15       29.75R
EASTON*        CLOUDY    63  54  72 E8        29.79S

$$

MDZ017>025-250100-
SOUTHERN MARYLAND

CITY           SKY/WX    TMP DP  RH WIND       PRES   REMARKS
PATUXENT RIVER CLOUDY    61  59  93 E21G26    29.71S
ST INIGOES     CLOUDY    62  57  83 E10       29.71R
LEONARDTOWN*   CLOUDY    61  55  82 E7        29.73S

$$

MDZ003>005-250100-
NORTH CENTRAL MARYLAND

CITY           SKY/WX    TMP DP  RH WIND       PRES   REMARKS
FREDERICK*     CLOUDY    64  61  88 E3        29.74S
HAGERSTOWN APT CLOUDY    63  55  75 SE9       29.70S
WESTMINSTER*   CLOUDY    64  57  77 SE5       29.73S

$$

MDZ501>502-250100-
WESTERN MARYLAND

CITY           SKY/WX    TMP DP  RH WIND       PRES   REMARKS
OAKLAND*       FOG       50  50 100 SE20G29   29.64F VSB 1
CUMBERLAND*    CLOUDY    59  55  88 CALM      29.71S

$$

VAZ025>031-250100-
SHENANDOAH VALLEY

CITY           SKY/WX    TMP DP  RH WIND       PRES   REMARKS
WINCHESTER*    CLOUDY    55  55 100 E10       29.69S FOG
FRONT ROYAL*   CLOUDY    59  57  94 E6        29.66F
LURAY*         CLOUDY    61  57  88 NE9       29.64F
NEW MARKET*    CLOUDY    60  57  92 CALM      29.63F
STAUNTON*      LGT RAIN  59  57  93 N5        29.65S
WAYNESBORO*    CLOUDY    58  58 100 E6        29.63S

$$

WVZ021-048>050-054>055-250100-
EASTERN WEST VIRGINIA PANHANDLE

CITY           SKY/WX    TMP DP  RH WIND       PRES   REMARKS
MARTINSBURG    CLOUDY    60  56  86 SE7       29.69S
PETERSBURG*    RAIN      60  59  97 CALM      29.65S

$$

VAZ036>039-050-250100-
CENTRAL FOOTHILLS

CITY           SKY/WX    TMP DP  RH WIND       PRES   REMARKS
CHARLOTTESVILL LGT RAIN  62  60  93 E8        29.64F FOG
CULPEPER*      CLOUDY    62  59  90 E7        29.69S
ORANGE*        CLOUDY    59  59 100 E9        29.66F
GORDONSVILLE*  CLOUDY    60  60  99 E7        29.64F
WARRENTON*     CLOUDY    62  56  81 E8        29.68F

$$

VAZ055>057-250100-
NORTH AND CENTRAL PIEDMONT

CITY           SKY/WX    TMP DP  RH WIND       PRES   REMARKS
FREDERICKSBRG* CLOUDY    63  60  90 E12       29.68F
STAFFORD*      CLOUDY    62  60  95 E10       29.72F

$$

NCZ024-NYZ072-PAZ021-071-VAZ022-071-250100-
OTHER REGIONAL OBSERVATIONS

CITY           SKY/WX    TMP DP  RH WIND       PRES   REMARKS
NEW YORK CITY  PTCLDY    62  51  67 S3        29.82R
PHILADELPHIA   CLOUDY    64  51  62 E14       29.78R
PITTSBURGH     LGT RAIN  60  57  89 E13       29.54F
ROANOKE        LGT RAIN  60  60 100 N3        29.59S
RICHMOND       CLOUDY    61  59  93 E10       29.66F
RALEIGH        CLOUDY    70  67  90 SE7       29.60R

$$

ANZ530>537-250100-
MARINE OBSERVATIONS

STATION/POSITION TIME  TEMP    WIND        PRES
                       AIR SEA DIR/SP/G
                 (UTC) (F)     (DEG/KT/KT) (MB)
THOMAS PT LIGHT  0000   61 65  120/ 14/ 15   N/A
BALT KEY BRIDGE  2348   64     120/ 19/ 21 1006.5R
COVE POINT       2348   61     130/ 13/ 19 1007.5R
LEWISETTA        2348   62 66  120/ 18/ 20 1006.1R
SOLOMONS ISLAND  2348   62 67   90/ 17/ 20   N/A
PINEY POINT      2348          130/ 15/ 19   N/A

$$





USA.gov is the U.S. government's official web portal to all federal, state and local government web resources and services.